Regional Weather Roundup
Issued by NWS

Home | Current Version | Previous Version | Text Only | Print | Product List | Glossary Off
Versions: 1 2 3 4 5 6 7 8 9 10 11 12 13 14 15 16 17 18 19 20 21 22 23 24 25 26 27 28 29 30 31 32 33 34 35 36 37 38 39 40 41 42 43 44 45 46 47 48 49 50

000
ASUS43 KIND 290209
RWRIN

WEATHER ROUNDUP FOR INDIANA
NATIONAL WEATHER SERVICE INDIANAPOLIS IN
1000 PM EDT FRI APR 28 2017

NOTE: "FAIR" INDICATES FEW OR NO CLOUDS BELOW 12,000 FEET WITH NO
SIGNIFICANT WEATHER AND/OR OBSTRUCTIONS TO VISIBILITY.

* - STATION DOES NOT REPORT WEATHER SUCH AS PRECIPITATION OR FOG.

+ - STATION NOT QUALITY CONTROLLED BY THE NATIONAL WEATHER SERVICE.
    USE DATA WITH CAUTION...ESPECIALLY DEWPOINT AND RELATIVE
    HUMIDITY OBSERVATIONS.

INZ001>003-010>013-019-020-290300-
NORTHWEST INDIANA

CITY           SKY/WX    TMP DP  RH WIND       PRES   REMARKS
GARY /AIRPORT/ PTCLDY    48  45  87 CALM      29.94R
KNOX *+        CLOUDY    54  34  47 E5        29.92R
LA PORTE +     CLOUDY    54  51  88 SE3       29.93R
MICHIGAN CITY+ CLOUDY    55  52  88 CALM      29.94R
MONTICELLO +   LGT RAIN  54  52  95 E6        29.88F
RENSSELAER +   CLOUDY    55  52  88 NE5       29.90R
VALPARAISO     CLOUDY    56  51  84 CALM      29.93R

$$

LMZ046-743>745-290300-
SOUTHERN LAKE MICHIGAN

STATION/POSITION TIME  TEMP    WIND        PRES    WAVE
                       AIR SEA DIR/SP/G            HT
                 (UTC) (F)     (DEG/KT/KT) (MB)    (FT)
BURNS HARBOR     0118   49      CALM  /  8 1013.5R
MICHIGAN CITY    0140   48      30/  6/  7   N/A
5NW MICH CITY    0200   45 46                N/A     1

$$

INZ004-005-014>016-021>024-290300-
NORTH CENTRAL INDIANA

CITY           SKY/WX    TMP DP  RH WIND       PRES   REMARKS
GOSHEN         CLOUDY    55  48  77 SE7       29.93R
LOGANSPORT +   LGT RAIN  52  50  93 E5        29.90F
PERU/GRISSOM   LGT RAIN  53  53 100 E8        29.87F
ROCHESTER +    LGT RAIN  55  52  88 E6        29.92S
SOUTH BEND     CLOUDY    56  49  77 SE5       29.93R
WARSAW +       CLOUDY    52  50  93 E5        29.93R

$$

INZ006>009-017-018-025>027-290300-
NORTHEAST INDIANA

CITY           SKY/WX    TMP DP  RH WIND       PRES   REMARKS
ANGOLA *+      CLOUDY    54  43  66 SE3       29.95R
AUBURN +       CLOUDY    52  50  93 E3        29.95R
FORT WAYNE     LGT RAIN  53  49  86 E5        29.94R
HUNTINGTON +   LGT RAIN  52  50  95 NE3       29.92F
KENDALLVILLE + LGT RAIN  52  50  93 E3        29.95R

$$

INZ028-029-035-036-043>045-051>053-290300-
WEST CENTRAL INDIANA

CITY           SKY/WX    TMP DP  RH WIND       PRES   REMARKS
CRAWFORDSVL +  CLOUDY    53  53 100 E6        29.87R
GREENCASTLE +  CLOUDY    54  54 100 E7        29.85R
LAFAYETTE      CLOUDY    55  54  96 E6        29.87F
TERRE HAUTE    CLOUDY    57  55  93 E6        29.86R

$$

INZ030>032-037>040-046>048-054>057-064-065-290300-
CENTRAL INDIANA

CITY           SKY/WX    TMP DP  RH WIND       PRES   REMARKS
CP ATTERBURY + CLOUDY    59  55  88 E7        29.83R
COLUMBUS       CLOUDY    59  57  94 NE7       29.89R
FISHERS *+     CLOUDY    54  54 100 NE6       29.88R
FRANKFORT +    CLOUDY    57  55  94 E6        29.89S FOG
GREENWOOD *+   CLOUDY    58  55  90 SE5       29.85F
INDIANAPOLIS   CLOUDY    56  55  97 N12       29.88R
-EAGLE CREEK   CLOUDY    57  54  89 VRB5      29.86R
KOKOMO +       CLOUDY    54  53  97 E6        29.90F FOG
MT COMFORT *+  CLOUDY    55  54  94 NE5       29.86F
SHELBYVILLE    CLOUDY    60  55  83 E18       29.85F
ZIONSVILLE +   CLOUDY    54  53  97 NE6       29.89S FOG

$$

INZ033-034-041-042-049-050-058-059-290300-
EAST CENTRAL INDIANA

CITY           SKY/WX    TMP DP  RH WIND       PRES   REMARKS
MUNCIE         CLOUDY    57  54  89 E9        29.89R
RICHMOND +     RAIN      54  54 100 N7        29.93R

$$

INZ060-061-067>069-081>083-085>088-290300-
SOUTHWEST INDIANA

CITY           SKY/WX    TMP DP  RH WIND       PRES   REMARKS
EVANSVILLE     TSTM      72  69  90 CALM      29.80F FOG
WASHINGTON +   CLOUDY    60  58  94 NE5       29.85R THUNDER

$$

INZ062-063-066-070>080-084-089>092-290300-
SOUTH CENTRAL AND SOUTHEAST INDIANA

CITY           SKY/WX    TMP DP  RH WIND       PRES   REMARKS
BEDFORD +      CLOUDY    64  61  88 N5        29.86R
BLOOMINGTON    CLOUDY    59  57  93 SE8       29.82F FOG
MADISON *+     CLOUDY    72  64  78 S5        29.90R
NORTH VERNON + CLOUDY    59  59 100 NE3       29.90
SEYMOUR +      CLOUDY    64  63  94 E3        29.88R

$$





USA.gov is the U.S. government's official web portal to all federal, state and local government web resources and services.